ELY971 LLBG-OMDB

Flight info

Callsign ELY971
Flight time 2h 30m
Altitude 37000
Route SALAM N134 OSAMA DCT EGLOT R652 KULDI N318 NEVOL Q255 LUDEP P559 VUTEB
Aircraft B789/H-SDE1E2E3FGHIJ2J3J4J5M1RWXY/LB1D1

Departure

Time 2026-04-23 16:10
Airport Ben Gurion International Airport (LLBG)

Arrival

Time 2026-04-23 18:40
Airport Dubai International Airport (OMDB)
Time Latitude Longitude Altitude Speed Heading
2026-04-23 15:43 32.00370 34.87640 125 ft 0 kts 272°
2026-04-23 15:46 32.00370 34.87641 125 ft 0 kts 272°
2026-04-23 15:53 32.00370 34.87651 125 ft 2 kts 270°
2026-04-23 15:53 32.00370 34.87671 124 ft 2 kts 271°
2026-04-23 15:54 32.00370 34.87690 121 ft 2 kts 271°
2026-04-23 15:54 32.00366 34.87709 121 ft 2 kts 302°
2026-04-23 15:54 32.00355 34.87724 120 ft 2 kts 324°
2026-04-23 15:54 32.00341 34.87732 120 ft 2 kts 347°
2026-04-23 15:55 32.00324 34.87731 120 ft 2 kts 28°
2026-04-23 15:55 32.00310 34.87721 120 ft 2 kts 32°
2026-04-23 15:55 32.00297 34.87712 120 ft 2 kts 32°
2026-04-23 15:55 32.00293 34.87709 120 ft 0 kts 32°
2026-04-23 15:56 32.00295 34.87710 120 ft 0 kts 32°
2026-04-23 15:58 32.00315 34.87725 120 ft 9 kts 31°
2026-04-23 15:58 32.00405 34.87785 121 ft 20 kts 31°
2026-04-23 15:59 32.00555 34.87892 120 ft 29 kts 32°
2026-04-23 15:59 32.00722 34.88018 121 ft 28 kts 31°
2026-04-23 15:59 32.00885 34.88134 122 ft 28 kts 31°
2026-04-23 15:59 32.01067 34.88263 122 ft 31 kts 32°
2026-04-23 16:00 32.01245 34.88393 122 ft 29 kts 33°
2026-04-23 16:00 32.01384 34.88557 121 ft 28 kts 51°
2026-04-23 16:00 32.01474 34.88750 121 ft 26 kts 72°
2026-04-23 16:00 32.01515 34.88958 121 ft 26 kts 82°
2026-04-23 16:01 32.01542 34.89161 123 ft 25 kts 79°
2026-04-23 16:01 32.01576 34.89356 120 ft 24 kts 80°
2026-04-23 16:01 32.01606 34.89549 120 ft 24 kts 80°
2026-04-23 16:01 32.01672 34.89702 120 ft 19 kts 27°
2026-04-23 16:02 32.01793 34.89766 120 ft 18 kts 11°
2026-04-23 16:02 32.01844 34.89727 120 ft 4 kts 273°
2026-04-23 16:02 32.01830 34.89637 119 ft 14 kts 260°
2026-04-23 16:02 32.01829 34.89626 121 ft 0 kts 260°
2026-04-23 16:09 32.01828 34.89622 123 ft 6 kts 260°
2026-04-23 16:09 32.01783 34.89309 123 ft 75 kts 260°
2026-04-23 16:09 32.01646 34.88421 124 ft 143 kts 261°
2026-04-23 16:09 32.01514 34.87572 227 ft 168 kts 257°
2026-04-23 16:10 32.01283 34.86167 625 ft 187 kts 264°
2026-04-23 16:10 32.01078 34.84576 1355 ft 194 kts 262°
2026-04-23 16:10 32.00404 34.83197 2214 ft 204 kts 221°
2026-04-23 16:10 31.99106 34.82528 3141 ft 202 kts 189°
2026-04-23 16:11 31.97745 34.82753 4081 ft 203 kts 160°
2026-04-23 16:11 31.96660 34.83841 4932 ft 212 kts 126°
2026-04-23 16:11 31.96204 34.85504 5764 ft 216 kts 102°
2026-04-23 16:11 31.95962 34.87263 6551 ft 220 kts 102°
2026-04-23 16:12 31.95703 34.89059 7286 ft 224 kts 103°
2026-04-23 16:12 31.95420 34.90872 8041 ft 226 kts 104°
2026-04-23 16:12 31.95133 34.92703 8811 ft 228 kts 104°
2026-04-23 16:12 31.94846 34.94557 9563 ft 231 kts 105°
2026-04-23 16:13 31.94420 34.96382 10155 ft 236 kts 118°
2026-04-23 16:13 31.93915 35.00609 10806 ft 283 kts 87°
2026-04-23 16:13 31.94063 35.02925 11516 ft 287 kts 90°
2026-04-23 16:14 31.94062 35.05368 11758 ft 317 kts 94°
2026-04-23 16:14 31.93965 35.08079 12029 ft 346 kts 94°
2026-04-23 16:14 31.93907 35.11021 12459 ft 367 kts 92°
2026-04-23 16:14 31.93895 35.14005 13487 ft 370 kts 92°
2026-04-23 16:15 31.93864 35.17079 14335 ft 375 kts 92°
2026-04-23 16:15 31.93811 35.20181 15153 ft 381 kts 92°
2026-04-23 16:15 31.93761 35.23314 15943 ft 386 kts 92°
2026-04-23 16:15 31.93719 35.26503 16740 ft 391 kts 92°
2026-04-23 16:16 31.93676 35.29721 17562 ft 395 kts 92°
2026-04-23 16:16 31.93626 35.32981 18310 ft 401 kts 92°
2026-04-23 16:16 31.93575 35.36279 18958 ft 405 kts 92°
2026-04-23 16:16 31.93524 35.39612 19619 ft 410 kts 92°
2026-04-23 16:17 31.93473 35.42995 20242 ft 415 kts 92°
2026-04-23 16:17 31.93419 35.46410 20882 ft 420 kts 91°
2026-04-23 16:17 31.93363 35.49869 21497 ft 425 kts 91°
2026-04-23 16:17 31.93247 35.53370 22078 ft 429 kts 94°
2026-04-23 16:18 31.93088 35.56899 22645 ft 434 kts 97°
2026-04-23 16:18 31.92398 35.60350 23219 ft 436 kts 113°
2026-04-23 16:18 31.90998 35.63506 23737 ft 436 kts 129°
2026-04-23 16:18 31.88993 35.66160 24232 ft 433 kts 141°
2026-04-23 16:19 31.86799 35.68559 24667 ft 438 kts 141°
2026-04-23 16:19 31.84538 35.70978 25167 ft 440 kts 142°
2026-04-23 16:19 31.82248 35.73394 25651 ft 444 kts 142°
2026-04-23 16:19 31.79954 35.75841 26108 ft 447 kts 141°
2026-04-23 16:20 31.77651 35.78317 26606 ft 450 kts 141°
2026-04-23 16:20 31.75327 35.80802 27049 ft 453 kts 142°
2026-04-23 16:20 31.72981 35.83296 27504 ft 456 kts 142°
2026-04-23 16:20 31.70620 35.85809 27949 ft 459 kts 142°
2026-04-23 16:21 31.68245 35.88341 28373 ft 462 kts 142°
2026-04-23 16:21 31.65856 35.90886 28804 ft 465 kts 142°
2026-04-23 16:21 31.63418 35.93476 29224 ft 468 kts 142°
2026-04-23 16:21 31.60996 35.96048 29628 ft 471 kts 142°
2026-04-23 16:22 31.58554 35.98641 30017 ft 474 kts 142°
2026-04-23 16:22 31.56102 36.01244 30354 ft 477 kts 142°
2026-04-23 16:22 31.53670 36.03823 30706 ft 479 kts 142°
2026-04-23 16:22 31.51192 36.06447 31019 ft 482 kts 142°
2026-04-23 16:23 31.48697 36.09088 31345 ft 484 kts 142°
2026-04-23 16:23 31.46190 36.11741 31665 ft 486 kts 143°
2026-04-23 16:23 31.43672 36.14402 31984 ft 489 kts 143°
2026-04-23 16:23 31.41141 36.17074 32263 ft 491 kts 143°
2026-04-23 16:24 31.38592 36.19764 32552 ft 493 kts 143°
2026-04-23 16:24 31.36037 36.22461 32843 ft 495 kts 142°
2026-04-23 16:24 31.33670 36.25429 33129 ft 504 kts 131°
2026-04-23 16:24 31.31775 36.28912 33381 ft 514 kts 120°
2026-04-23 16:25 31.30434 36.32819 33622 ft 522 kts 108°
2026-04-23 16:25 31.29732 36.37002 33851 ft 528 kts 96°
2026-04-23 16:25 31.29719 36.41304 34045 ft 532 kts 84°
2026-04-23 16:25 31.30225 36.45555 34181 ft 536 kts 82°
2026-04-23 16:26 31.30782 36.49864 34404 ft 537 kts 81°
2026-04-23 16:26 31.31174 36.54209 34579 ft 538 kts 92°
2026-04-23 16:26 31.30966 36.58577 34716 ft 539 kts 96°
2026-04-23 16:26 31.30653 36.62952 34961 ft 539 kts 97°
2026-04-23 16:27 31.30317 36.67327 35221 ft 540 kts 97°
2026-04-23 16:27 31.29990 36.71715 35478 ft 541 kts 97°
2026-04-23 16:27 31.29676 36.76101 35712 ft 541 kts 97°
2026-04-23 16:27 31.29356 36.80484 35962 ft 541 kts 97°
2026-04-23 16:28 31.29025 36.84874 36200 ft 542 kts 97°
2026-04-23 16:28 31.28694 36.89257 36438 ft 542 kts 97°
2026-04-23 16:28 31.28366 36.93654 36668 ft 543 kts 97°
2026-04-23 16:28 31.28037 36.98058 36879 ft 544 kts 97°
2026-04-23 16:29 31.27365 37.06869 36855 ft 548 kts 97°
2026-04-23 16:29 31.26679 37.15826 36865 ft 558 kts 97°
2026-04-23 16:30 31.25725 37.24885 36908 ft 561 kts 109°
2026-04-23 16:30 31.23227 37.33551 36867 ft 565 kts 114°
2026-04-23 16:31 31.20602 37.42216 36873 ft 565 kts 114°
2026-04-23 16:31 31.17987 37.50863 36876 ft 565 kts 114°
2026-04-23 16:32 31.15354 37.59519 36884 ft 565 kts 114°
2026-04-23 16:32 31.12725 37.68183 36887 ft 566 kts 114°
2026-04-23 16:33 31.10087 37.76851 36889 ft 566 kts 114°
2026-04-23 16:33 31.07456 37.85468 36893 ft 566 kts 114°
2026-04-23 16:34 31.04812 37.94107 36894 ft 565 kts 114°
2026-04-23 16:34 31.02163 38.02733 36895 ft 565 kts 114°
2026-04-23 16:35 30.99506 38.11372 36896 ft 566 kts 114°
2026-04-23 16:35 30.96841 38.20006 36898 ft 566 kts 114°
2026-04-23 16:36 30.94170 38.28639 36910 ft 566 kts 114°
2026-04-23 16:36 30.91492 38.37267 36909 ft 567 kts 114°
2026-04-23 16:37 30.88805 38.45906 36915 ft 568 kts 114°
2026-04-23 16:37 30.86113 38.54535 36918 ft 568 kts 115°
2026-04-23 16:38 30.83381 38.63269 36916 ft 569 kts 115°
2026-04-23 16:38 30.80666 38.71927 36921 ft 569 kts 115°
2026-04-23 16:39 30.77664 38.80319 36939 ft 563 kts 122°
2026-04-23 16:39 30.74165 38.88505 36942 ft 565 kts 122°
2026-04-23 16:40 30.70655 38.96684 36940 ft 566 kts 122°
2026-04-23 16:40 30.67137 39.04865 36937 ft 566 kts 122°
2026-04-23 16:41 30.63614 39.13045 36944 ft 566 kts 122°
2026-04-23 16:41 30.60085 39.21216 36945 ft 566 kts 122°
2026-04-23 16:42 30.56553 39.29378 36950 ft 566 kts 122°
2026-04-23 16:42 30.53016 39.37532 36955 ft 566 kts 123°
2026-04-23 16:43 30.49464 39.45705 36964 ft 566 kts 123°
2026-04-23 16:43 30.45909 39.53866 36968 ft 567 kts 123°
2026-04-23 16:44 30.42344 39.62031 36972 ft 568 kts 123°
2026-04-23 16:44 30.38977 39.70342 36985 ft 571 kts 121°
2026-04-23 16:45 30.35620 39.78678 36987 ft 572 kts 121°
2026-04-23 16:45 30.32316 39.87049 36983 ft 572 kts 121°
2026-04-23 16:46 30.28968 39.95393 36969 ft 571 kts 121°
2026-04-23 16:46 30.25633 40.03754 36978 ft 573 kts 121°
2026-04-23 16:47 30.22278 40.12110 36977 ft 573 kts 121°
2026-04-23 16:47 30.18939 40.20425 36972 ft 573 kts 121°
2026-04-23 16:48 30.15572 40.28783 36965 ft 573 kts 121°
2026-04-23 16:48 30.12203 40.37129 36966 ft 573 kts 121°
2026-04-23 16:49 30.08825 40.45479 36969 ft 574 kts 121°
2026-04-23 16:49 30.05444 40.53821 36968 ft 574 kts 121°
2026-04-23 16:50 30.02050 40.62175 36966 ft 574 kts 121°
2026-04-23 16:50 29.98654 40.70515 36972 ft 575 kts 121°
2026-04-23 16:51 29.95798 40.77516 36972 ft 575 kts 121°
2026-04-23 16:51 29.92387 40.85856 36976 ft 575 kts 121°
2026-04-23 16:52 29.88973 40.94190 36978 ft 575 kts 121°
2026-04-23 16:52 29.85570 41.02476 36971 ft 576 kts 121°
2026-04-23 16:53 29.82140 41.10811 36969 ft 576 kts 121°
2026-04-23 16:53 29.78697 41.19156 36972 ft 576 kts 121°
2026-04-23 16:54 29.75278 41.27428 36969 ft 576 kts 121°
2026-04-23 16:54 29.72257 41.36010 36986 ft 583 kts 115°
2026-04-23 16:55 29.69554 41.44670 36988 ft 583 kts 115°
2026-04-23 16:55 29.66814 41.53468 36985 ft 583 kts 115°
2026-04-23 16:56 29.64083 41.62190 36981 ft 583 kts 115°
2026-04-23 16:56 29.61334 41.70960 36978 ft 583 kts 115°
2026-04-23 16:57 29.58575 41.79731 36976 ft 583 kts 115°
2026-04-23 16:57 29.55809 41.88502 36970 ft 584 kts 115°
2026-04-23 16:58 29.53041 41.97260 36981 ft 584 kts 115°
2026-04-23 16:58 29.50261 42.06029 36970 ft 584 kts 115°
2026-04-23 16:59 29.47473 42.14804 36969 ft 585 kts 115°
2026-04-23 16:59 29.44682 42.23564 36975 ft 585 kts 115°
2026-04-23 17:00 29.41883 42.32327 36972 ft 584 kts 115°
2026-04-23 17:00 29.39080 42.41077 36973 ft 585 kts 115°
2026-04-23 17:01 29.36271 42.49827 36972 ft 586 kts 115°
2026-04-23 17:01 29.33466 42.58538 36970 ft 586 kts 115°
2026-04-23 17:02 29.30634 42.67313 36969 ft 586 kts 115°
2026-04-23 17:02 29.27798 42.76074 36965 ft 587 kts 115°
2026-04-23 17:03 29.24953 42.84848 36981 ft 587 kts 115°
2026-04-23 17:03 29.22103 42.93607 36967 ft 588 kts 115°
2026-04-23 17:04 29.19244 43.02377 36967 ft 587 kts 116°
2026-04-23 17:04 29.16317 43.11084 36975 ft 582 kts 123°
2026-04-23 17:05 29.12358 43.19095 36990 ft 578 kts 127°
2026-04-23 17:05 29.08277 43.27022 36988 ft 578 kts 127°
2026-04-23 17:06 29.04227 43.34961 36978 ft 578 kts 127°
2026-04-23 17:06 29.00153 43.42872 36969 ft 578 kts 127°
2026-04-23 17:07 28.96082 43.50799 36973 ft 579 kts 127°
2026-04-23 17:07 28.91984 43.58743 36973 ft 580 kts 127°
2026-04-23 17:08 28.87911 43.66636 36975 ft 580 kts 127°
2026-04-23 17:08 28.83805 43.74569 36978 ft 580 kts 127°
2026-04-23 17:09 28.79672 43.82546 36977 ft 581 kts 127°
2026-04-23 17:09 28.75552 43.90477 37001 ft 581 kts 127°
2026-04-23 17:10 28.71451 43.98359 36986 ft 581 kts 127°
2026-04-23 17:10 28.67322 44.06280 36990 ft 582 kts 127°
2026-04-23 17:11 28.63188 44.14196 36989 ft 582 kts 127°
2026-04-23 17:11 28.59047 44.22109 36989 ft 581 kts 127°
2026-04-23 17:12 28.54910 44.29999 36991 ft 580 kts 127°
2026-04-23 17:12 28.50770 44.37880 36995 ft 580 kts 127°
2026-04-23 17:13 28.46632 44.45744 36996 ft 580 kts 127°
2026-04-23 17:13 28.42485 44.53609 36998 ft 580 kts 127°
2026-04-23 17:14 28.38333 44.61470 36998 ft 580 kts 128°
2026-04-23 17:14 28.34183 44.69309 36998 ft 580 kts 128°
2026-04-23 17:15 28.30024 44.77156 36997 ft 579 kts 128°
2026-04-23 17:15 28.25859 44.84995 37004 ft 580 kts 128°
2026-04-23 17:16 28.21717 44.92780 37002 ft 580 kts 128°
2026-04-23 17:16 28.17544 45.00605 37002 ft 580 kts 128°
2026-04-23 17:17 28.13336 45.08484 37007 ft 580 kts 128°
2026-04-23 17:17 28.09158 45.16304 37006 ft 580 kts 128°
2026-04-23 17:18 28.02914 45.27960 37001 ft 579 kts 128°
2026-04-23 17:19 27.98730 45.35756 37017 ft 579 kts 128°
2026-04-23 17:19 27.94542 45.43542 37011 ft 579 kts 128°
2026-04-23 17:20 27.90352 45.51319 37012 ft 579 kts 127°
2026-04-23 17:20 27.87204 45.59795 37043 ft 596 kts 107°
2026-04-23 17:21 27.85313 45.68936 37023 ft 597 kts 107°
2026-04-23 17:21 27.82495 45.82651 37029 ft 597 kts 107°
2026-04-23 17:22 27.79667 45.96352 37023 ft 597 kts 107°
2026-04-23 17:23 27.76811 46.10057 37017 ft 597 kts 107°
2026-04-23 17:24 27.73952 46.23722 37014 ft 596 kts 108°
2026-04-23 17:24 27.71119 46.37325 37011 ft 595 kts 108°
2026-04-23 17:25 27.68247 46.51002 37010 ft 594 kts 108°
2026-04-23 17:26 27.64435 46.69073 37007 ft 594 kts 108°
2026-04-23 17:27 27.61548 46.82679 37011 ft 595 kts 108°
2026-04-23 17:27 27.59615 46.91751 37003 ft 595 kts 108°
2026-04-23 17:28 27.57679 47.00814 37000 ft 589 kts 109°
2026-04-23 17:28 27.56727 47.05264 37587 ft 572 kts 109°
2026-04-23 17:28 27.55813 47.09545 38712 ft 557 kts 109°
2026-04-23 17:29 27.54891 47.13795 38859 ft 559 kts 109°
2026-04-23 17:29 27.53966 47.18050 39034 ft 560 kts 109°
2026-04-23 17:29 27.52135 47.26576 39394 ft 561 kts 109°
2026-04-23 17:30 27.51523 47.29403 39506 ft 561 kts 109°
2026-04-23 17:30 27.49353 47.39387 39914 ft 562 kts 109°
2026-04-23 17:30 27.48425 47.43666 40091 ft 562 kts 109°
2026-04-23 17:31 27.47493 47.47944 40246 ft 563 kts 109°
2026-04-23 17:31 27.46558 47.52224 40415 ft 563 kts 109°
2026-04-23 17:31 27.45621 47.56509 40568 ft 564 kts 109°
2026-04-23 17:31 27.44683 47.60799 40734 ft 564 kts 109°
2026-04-23 17:32 27.42777 47.67777 40952 ft 561 kts 113°
2026-04-23 17:32 27.40396 47.76179 40999 ft 565 kts 113°
2026-04-23 17:33 27.38014 47.84573 40987 ft 561 kts 113°
2026-04-23 17:33 27.35633 47.92915 40987 ft 560 kts 113°
2026-04-23 17:34 27.33253 48.01260 40983 ft 559 kts 113°
2026-04-23 17:35 27.29818 48.13797 40991 ft 560 kts 111°
2026-04-23 17:35 27.26441 48.26369 40989 ft 561 kts 111°
2026-04-23 17:36 27.24225 48.34767 40987 ft 560 kts 111°
2026-04-23 17:36 27.21982 48.43134 40980 ft 559 kts 111°
2026-04-23 17:37 27.19763 48.51489 40974 ft 557 kts 111°
2026-04-23 17:38 27.16408 48.63993 40968 ft 558 kts 111°
2026-04-23 17:38 27.14167 48.72330 40964 ft 558 kts 111°
2026-04-23 17:39 27.11923 48.80654 40964 ft 557 kts 111°
2026-04-23 17:39 27.09906 48.89043 40993 ft 560 kts 99°
2026-04-23 17:40 27.09404 48.97830 40967 ft 566 kts 95°
2026-04-23 17:40 27.09013 49.06654 40960 ft 566 kts 95°
2026-04-23 17:41 27.08597 49.15482 40947 ft 566 kts 95°
2026-04-23 17:41 27.07979 49.28715 40944 ft 565 kts 95°
2026-04-23 17:42 27.07325 49.41856 40934 ft 564 kts 95°
2026-04-23 17:43 27.06910 49.50642 40927 ft 563 kts 95°
2026-04-23 17:43 27.06470 49.59416 40931 ft 563 kts 95°
2026-04-23 17:44 27.06038 49.68189 40934 ft 563 kts 95°
2026-04-23 17:44 27.05370 49.81342 40940 ft 564 kts 95°
2026-04-23 17:45 27.04692 49.94508 40955 ft 563 kts 95°
2026-04-23 17:46 27.04661 50.07679 40942 ft 563 kts 90°
2026-04-23 17:46 27.04732 50.16461 40941 ft 562 kts 90°
2026-04-23 17:47 27.04819 50.25186 40957 ft 563 kts 90°
2026-04-23 17:48 27.04271 50.38296 40979 ft 559 kts 109°
2026-04-23 17:48 27.01551 50.46390 40959 ft 554 kts 117°
2026-04-23 17:49 26.98519 50.54345 40948 ft 554 kts 117°
2026-04-23 17:49 26.95500 50.62309 40941 ft 555 kts 117°
2026-04-23 17:50 26.92466 50.70264 40942 ft 555 kts 117°
2026-04-23 17:50 26.87924 50.82165 40940 ft 553 kts 117°
2026-04-23 17:51 26.84895 50.90073 40922 ft 552 kts 117°
2026-04-23 17:52 26.80365 51.01925 40924 ft 552 kts 117°
2026-04-23 17:52 26.76123 51.13852 40933 ft 554 kts 113°
2026-04-23 17:53 26.72201 51.26038 40926 ft 555 kts 113°
2026-04-23 17:54 26.69595 51.34162 40924 ft 554 kts 113°
2026-04-23 17:54 26.65668 51.46335 40912 ft 554 kts 113°
2026-04-23 17:55 26.61758 51.58510 40908 ft 555 kts 113°
2026-04-23 17:56 26.59143 51.66614 40904 ft 554 kts 113°
2026-04-23 17:56 26.55217 51.78761 40899 ft 553 kts 113°
2026-04-23 17:57 26.52615 51.86793 40895 ft 553 kts 113°
2026-04-23 17:58 26.48606 51.98844 40895 ft 551 kts 114°
2026-04-23 17:58 26.45946 52.06880 40891 ft 550 kts 114°
2026-04-23 17:58 26.44612 52.10876 40760 ft 550 kts 114°
2026-04-23 17:59 26.43268 52.14881 40489 ft 552 kts 114°
2026-04-23 17:59 26.41926 52.18890 40305 ft 551 kts 114°
2026-04-23 17:59 26.40597 52.22877 40234 ft 547 kts 114°
2026-04-23 17:59 26.39264 52.26856 40058 ft 546 kts 114°
2026-04-23 18:00 26.37930 52.30822 39903 ft 545 kts 114°
2026-04-23 18:00 26.36601 52.34778 39756 ft 544 kts 114°
2026-04-23 18:00 26.35262 52.38713 39604 ft 541 kts 118°
2026-04-23 18:00 26.33763 52.42559 39417 ft 540 kts 117°
2026-04-23 18:01 26.32301 52.46415 39271 ft 540 kts 116°
2026-04-23 18:01 26.30846 52.50267 38861 ft 539 kts 117°
2026-04-23 18:01 26.29368 52.54102 38241 ft 540 kts 117°
2026-04-23 18:01 26.27878 52.57940 37644 ft 539 kts 117°
2026-04-23 18:02 26.26899 52.60483 37259 ft 538 kts 116°
2026-04-23 18:02 26.24940 52.65609 36487 ft 536 kts 116°
2026-04-23 18:02 26.23492 52.69369 35923 ft 534 kts 116°
2026-04-23 18:02 26.22034 52.73165 35352 ft 532 kts 116°
2026-04-23 18:03 26.20589 52.76953 34780 ft 530 kts 115°
2026-04-23 18:03 26.19152 52.80719 34219 ft 528 kts 115°
2026-04-23 18:03 26.17710 52.84472 33629 ft 525 kts 115°
2026-04-23 18:03 26.16281 52.88186 33056 ft 520 kts 115°
2026-04-23 18:04 26.14865 52.91875 32520 ft 516 kts 115°
2026-04-23 18:04 26.13461 52.95532 31976 ft 512 kts 115°
2026-04-23 18:04 26.12067 52.99153 31454 ft 508 kts 115°
2026-04-23 18:04 26.10679 53.02753 30954 ft 503 kts 115°
2026-04-23 18:05 26.09370 53.06371 30623 ft 494 kts 113°
2026-04-23 18:05 26.08069 53.09879 30243 ft 487 kts 114°
2026-04-23 18:05 26.06765 53.13319 29869 ft 481 kts 114°
2026-04-23 18:05 26.05507 53.16745 29479 ft 474 kts 113°
2026-04-23 18:06 26.04301 53.20079 29119 ft 466 kts 114°
2026-04-23 18:06 26.03086 53.23387 28758 ft 459 kts 114°
2026-04-23 18:06 26.01874 53.26643 28427 ft 452 kts 114°
2026-04-23 18:06 26.00688 53.29847 28082 ft 445 kts 114°
2026-04-23 18:07 25.99526 53.33007 27740 ft 438 kts 114°
2026-04-23 18:07 25.98378 53.36120 27408 ft 432 kts 114°
2026-04-23 18:07 25.97241 53.39189 27095 ft 426 kts 114°
2026-04-23 18:07 25.96122 53.42208 26778 ft 420 kts 114°
2026-04-23 18:08 25.95372 53.44233 26570 ft 416 kts 114°
2026-04-23 18:08 25.93924 53.48142 26165 ft 410 kts 114°
2026-04-23 18:08 25.92907 53.51093 25860 ft 407 kts 110°
2026-04-23 18:08 25.91909 53.54033 25561 ft 406 kts 114°
2026-04-23 18:09 25.90844 53.56940 25248 ft 406 kts 114°
2026-04-23 18:09 25.89823 53.59864 24942 ft 406 kts 112°
2026-04-23 18:09 25.88838 53.62804 24636 ft 405 kts 112°
2026-04-23 18:09 25.87842 53.65720 24332 ft 403 kts 113°
2026-04-23 18:10 25.86830 53.68617 24031 ft 401 kts 113°
2026-04-23 18:10 25.85825 53.71503 23731 ft 399 kts 112°
2026-04-23 18:10 25.84846 53.74342 23428 ft 397 kts 112°
2026-04-23 18:10 25.83860 53.77194 23088 ft 395 kts 113°
2026-04-23 18:11 25.82875 53.80026 22783 ft 392 kts 113°
2026-04-23 18:11 25.81896 53.82841 22489 ft 390 kts 113°
2026-04-23 18:11 25.80923 53.85641 22197 ft 388 kts 113°
2026-04-23 18:11 25.79953 53.88432 21906 ft 387 kts 113°
2026-04-23 18:12 25.78983 53.91217 21617 ft 386 kts 113°
2026-04-23 18:12 25.78017 53.93989 21316 ft 384 kts 113°
2026-04-23 18:12 25.77054 53.96752 21037 ft 383 kts 113°
2026-04-23 18:12 25.76094 53.99505 20754 ft 382 kts 113°
2026-04-23 18:13 25.75225 54.02278 20482 ft 380 kts 108°
2026-04-23 18:13 25.74389 54.05064 20182 ft 380 kts 112°
2026-04-23 18:13 25.73474 54.07813 19899 ft 379 kts 112°
2026-04-23 18:13 25.72611 54.10573 19613 ft 379 kts 110°
2026-04-23 18:14 25.72066 54.12408 19429 ft 378 kts 110°
2026-04-23 18:14 25.71236 54.15173 19147 ft 377 kts 111°
2026-04-23 18:14 25.70385 54.17920 18862 ft 376 kts 111°
2026-04-23 18:14 25.69529 54.20664 18574 ft 375 kts 111°
2026-04-23 18:15 25.68686 54.23400 18299 ft 374 kts 111°
2026-04-23 18:15 25.67849 54.26130 17987 ft 374 kts 111°
2026-04-23 18:15 25.67001 54.28876 17285 ft 379 kts 111°
2026-04-23 18:15 25.66144 54.31644 16790 ft 378 kts 111°
2026-04-23 18:16 25.65331 54.34371 16641 ft 365 kts 106°
2026-04-23 18:16 25.65009 54.37101 16637 ft 351 kts 95°
2026-04-23 18:16 25.64907 54.39802 16632 ft 353 kts 94°
2026-04-23 18:17 25.64502 54.45295 16265 ft 355 kts 98°
2026-04-23 18:17 25.64264 54.47993 15933 ft 349 kts 97°
2026-04-23 18:17 25.64064 54.50662 15597 ft 346 kts 96°
2026-04-23 18:17 25.63869 54.53318 15263 ft 345 kts 97°
2026-04-23 18:18 25.63662 54.55950 14926 ft 341 kts 97°
2026-04-23 18:18 25.63452 54.58559 14594 ft 336 kts 98°
2026-04-23 18:18 25.63251 54.61115 14270 ft 331 kts 98°
2026-04-23 18:18 25.63051 54.63658 13950 ft 331 kts 98°
2026-04-23 18:19 25.62851 54.66189 13622 ft 329 kts 98°
2026-04-23 18:19 25.62651 54.68707 13277 ft 327 kts 98°
2026-04-23 18:19 25.62452 54.71211 12953 ft 326 kts 98°
2026-04-23 18:19 25.62256 54.73674 12649 ft 323 kts 98°
2026-04-23 18:20 25.62061 54.76134 12324 ft 318 kts 98°
2026-04-23 18:20 25.61865 54.78575 12014 ft 319 kts 98°
2026-04-23 18:20 25.61668 54.81024 11703 ft 318 kts 98°
2026-04-23 18:20 25.61475 54.83443 11391 ft 317 kts 98°
2026-04-23 18:21 25.61258 54.85879 11075 ft 313 kts 103°
2026-04-23 18:21 25.60524 54.88072 11012 ft 302 kts 119°
2026-04-23 18:21 25.59693 54.90243 11016 ft 310 kts 115°
2026-04-23 18:21 25.58883 54.92466 11014 ft 312 kts 116°
2026-04-23 18:22 25.58026 54.94676 11016 ft 311 kts 117°
2026-04-23 18:22 25.57154 54.96870 11016 ft 311 kts 117°
2026-04-23 18:22 25.56286 54.99084 10817 ft 315 kts 116°
2026-04-23 18:22 25.55431 55.01297 10592 ft 311 kts 116°
2026-04-23 18:23 25.54855 55.02780 10421 ft 309 kts 117°
2026-04-23 18:23 25.52443 55.07543 9888 ft 305 kts 122°
2026-04-23 18:24 25.50356 55.11622 9393 ft 303 kts 123°
2026-04-23 18:24 25.49298 55.13637 9139 ft 302 kts 122°
2026-04-23 18:24 25.48253 55.15650 8896 ft 301 kts 122°
2026-04-23 18:25 25.46171 55.19639 8389 ft 293 kts 126°
2026-04-23 18:25 25.44860 55.21299 8149 ft 284 kts 136°
2026-04-23 18:25 25.43548 55.22925 8004 ft 280 kts 133°
2026-04-23 18:25 25.42268 55.24543 7994 ft 281 kts 134°
2026-04-23 18:26 25.40957 55.26156 7993 ft 282 kts 134°
2026-04-23 18:26 25.39641 55.27759 7993 ft 282 kts 134°
2026-04-23 18:26 25.38321 55.29377 7995 ft 283 kts 134°
2026-04-23 18:26 25.37009 55.30991 7998 ft 283 kts 134°
2026-04-23 18:27 25.35656 55.32570 7882 ft 284 kts 143°
2026-04-23 18:27 25.33932 55.33585 7663 ft 280 kts 156°
2026-04-23 18:27 25.32219 55.34614 7420 ft 280 kts 152°
2026-04-23 18:27 25.30527 55.35674 7184 ft 278 kts 153°
2026-04-23 18:28 25.28819 55.36677 6951 ft 277 kts 154°
2026-04-23 18:28 25.27131 55.37647 6719 ft 277 kts 154°
2026-04-23 18:28 25.25409 55.38653 6489 ft 276 kts 154°
2026-04-23 18:28 25.23734 55.39637 6264 ft 275 kts 153°
2026-04-23 18:29 25.22024 55.40640 6018 ft 274 kts 153°
2026-04-23 18:29 25.20337 55.41628 5647 ft 273 kts 153°
2026-04-23 18:29 25.18668 55.42602 5292 ft 270 kts 153°
2026-04-23 18:29 25.17041 55.43551 4945 ft 267 kts 152°
2026-04-23 18:30 25.15403 55.44510 4586 ft 265 kts 152°
2026-04-23 18:30 25.13775 55.45462 4218 ft 264 kts 151°
2026-04-23 18:30 25.12159 55.46408 3859 ft 263 kts 149°
2026-04-23 18:30 25.10797 55.47711 3488 ft 259 kts 122°
2026-04-23 18:31 25.09834 55.49388 3148 ft 258 kts 120°
2026-04-23 18:31 25.08896 55.51074 2790 ft 258 kts 119°
2026-04-23 18:31 25.07968 55.52760 2457 ft 255 kts 119°
2026-04-23 18:31 25.07056 55.54390 2138 ft 244 kts 119°
2026-04-23 18:32 25.06185 55.55941 2019 ft 232 kts 118°
2026-04-23 18:32 25.05335 55.57459 2025 ft 233 kts 119°
2026-04-23 18:32 25.04482 55.58985 2019 ft 234 kts 119°
2026-04-23 18:32 25.03631 55.60511 2027 ft 234 kts 119°
2026-04-23 18:33 25.02801 55.62065 2026 ft 234 kts 114°
2026-04-23 18:33 25.02662 55.63780 2002 ft 226 kts 72°
2026-04-23 18:33 25.03569 55.65126 2012 ft 228 kts 32°
2026-04-23 18:33 25.05077 55.65498 2005 ft 226 kts 353°
2026-04-23 18:34 25.06493 55.64755 2018 ft 229 kts 327°
2026-04-23 18:34 25.07741 55.63661 2029 ft 230 kts 322°
2026-04-23 18:34 25.08974 55.62525 2033 ft 232 kts 322°
2026-04-23 18:34 25.10215 55.61387 2031 ft 231 kts 322°
2026-04-23 18:35 25.11427 55.60274 2023 ft 216 kts 322°
2026-04-23 18:35 25.12497 55.59223 2008 ft 199 kts 317°
2026-04-23 18:35 25.13308 55.58022 2012 ft 193 kts 306°
2026-04-23 18:35 25.14038 55.56756 2012 ft 196 kts 306°
2026-04-23 18:36 25.14746 55.55483 2013 ft 196 kts 305°
2026-04-23 18:36 25.15464 55.54189 2010 ft 198 kts 305°
2026-04-23 18:36 25.16176 55.52901 2015 ft 196 kts 305°
2026-04-23 18:36 25.16888 55.51613 2000 ft 196 kts 306°
2026-04-23 18:37 25.17595 55.50332 1994 ft 193 kts 306°
2026-04-23 18:37 25.18244 55.49149 1972 ft 170 kts 306°
2026-04-23 18:37 25.18864 55.48034 1775 ft 168 kts 307°
2026-04-23 18:37 25.19461 55.46960 1566 ft 161 kts 306°
2026-04-23 18:38 25.20039 55.45915 1363 ft 161 kts 306°
2026-04-23 18:38 25.20623 55.44861 1153 ft 161 kts 306°
2026-04-23 18:38 25.21211 55.43805 953 ft 163 kts 304°
2026-04-23 18:38 25.21795 55.42759 784 ft 156 kts 301°
2026-04-23 18:39 25.22345 55.41708 532 ft 160 kts 302°
2026-04-23 18:39 25.22928 55.40672 307 ft 156 kts 303°
2026-04-23 18:39 25.23448 55.39737 122 ft 131 kts 303°
2026-04-23 18:39 25.23935 55.38862 31 ft 123 kts 302°
2026-04-23 18:40 25.24272 55.38259 27 ft 64 kts 301°
2026-04-23 18:40 25.24481 55.37884 27 ft 48 kts 302°
2026-04-23 18:40 25.24645 55.37588 27 ft 43 kts 303°
2026-04-23 18:40 25.24770 55.37308 27 ft 39 kts 288°
2026-04-23 18:41 25.24786 55.37050 27 ft 24 kts 269°
2026-04-23 18:41 25.24819 55.36909 27 ft 18 kts 295°
2026-04-23 18:41 25.24862 55.36780 27 ft 20 kts 281°
2026-04-23 18:41 25.24921 55.36611 27 ft 28 kts 302°
2026-04-23 18:42 25.25021 55.36429 27 ft 28 kts 300°
2026-04-23 18:42 25.25124 55.36240 27 ft 30 kts 301°
2026-04-23 18:42 25.25231 55.36044 28 ft 30 kts 301°
2026-04-23 18:42 25.25353 55.35831 28 ft 35 kts 301°
2026-04-23 18:43 25.25461 55.35602 28 ft 32 kts 279°
2026-04-23 18:43 25.25496 55.35386 28 ft 23 kts 287°
2026-04-23 18:43 25.25577 55.35237 28 ft 22 kts 300°
2026-04-23 18:43 25.25560 55.35152 28 ft 5 kts 202°
2026-04-23 18:44 25.25518 55.35137 28 ft 0 kts 202°